Simultaneous Nadir Overpasses (SNOs) Predictions

Prediction of SNOs between GOES-16 and FY3D Satellite Orbit:

Table of predicted SNOs for the next 14.0 days since TLE Epoch: 8/30/2024
Index Date Time (GOES-16) GOES-16 Lat,Lon FY3D Lat,Lon Distance(km) Time Diff (sec)
1 09/02/2024 07:38:49 0.04, -75.21 0.13, -75.52 36.03 80
2 09/03/2024 07:22:52 0.04, -75.22 -0.89, -71.01 479.58 80
3 09/04/2024 19:42:22 -0.03, -75.24 -0.29, -76.33 124.67 80
4 09/05/2024 19:26:25 -0.04, -75.25 0.74, -71.82 391.44 80
5 09/07/2024 07:45:45 0.03, -75.27 0.43, -77.10 208.73 80
6 09/08/2024 07:29:48 0.03, -75.28 -0.60, -72.59 307.57 80
7 09/09/2024 19:49:16 -0.03, -75.31 -0.60, -77.90 296.07 80
8 09/10/2024 19:33:19 -0.03, -75.32 0.38, -73.38 220.36 80
9 09/12/2024 07:55:18 0.02, -75.34 0.77, -78.67 379.43 80
10 09/13/2024 07:34:02 0.02, -75.35 -0.29, -74.16 137.04 80
